Time,TemperatureF,DewpointF,PressureIn,WindDirection,WindDirectionDegrees,WindSpeedMPH,WindSpeedGustMPH,Humidity,HourlyPrecipIn,Conditions,Clouds,dailyrainin,SoftwareType,DateUTC
2012-04-08 00:35:00,50.0,1.0,30.07,NNE,16,3.0,3.0,13,0.00,,,0.00,weatherlink.com 1.10,2012-04-08 07:35:00,
2012-04-08 01:34:00,47.6,11.0,30.06,NE,41,0.0,4.0,23,0.00,,,0.00,weatherlink.com 1.10,2012-04-08 08:34:00,
2012-04-08 01:49:00,48.9,6.0,30.06,North,357,2.0,4.0,17,0.00,,,0.00,weatherlink.com 1.10,2012-04-08 08:49:00,
2012-04-08 02:04:00,52.6,6.0,30.06,NNE,16,4.0,5.0,15,0.00,,,0.00,weatherlink.com 1.10,2012-04-08 09:04:00,
2012-04-08 02:19:00,53.6,7.0,30.05,NNE,29,5.0,5.0,15,0.00,,,0.00,weatherlink.com 1.10,2012-04-08 09:19:00,
2012-04-08 02:34:00,51.7,7.0,30.05,NNE,25,4.0,5.0,16,0.00,,,0.00,weatherlink.com 1.10,2012-04-08 09:34:00,
2012-04-08 02:49:00,53.0,5.0,30.04,NE,44,3.0,4.0,14,0.00,,,0.00,weatherlink.com 1.10,2012-04-08 09:49:00,
2012-04-08 03:04:00,52.6,7.0,30.04,NE,49,3.0,4.0,16,0.00,,,0.00,weatherlink.com 1.10,2012-04-08 10:04:00,
2012-04-08 03:19:00,53.8,7.0,30.04,NE,49,3.0,5.0,15,0.00,,,0.00,weatherlink.com 1.10,2012-04-08 10:19:00,
2012-04-08 03:34:00,53.5,7.0,30.03,NNE,29,3.0,5.0,15,0.00,,,0.00,weatherlink.com 1.10,2012-04-08 10:34:00,
2012-04-08 03:49:00,52.5,9.0,30.03,NE,37,0.0,4.0,17,0.00,,,0.00,weatherlink.com 1.10,2012-04-08 10:49:00,
2012-04-08 04:04:00,51.3,9.0,30.03,NNE,29,0.0,2.0,18,0.00,,,0.00,weatherlink.com 1.10,2012-04-08 11:04:00,
2012-04-08 04:19:00,50.9,9.0,30.03,NNE,30,3.0,4.0,18,0.00,,,0.00,weatherlink.com 1.10,2012-04-08 11:19:00,
2012-04-08 04:35:00,53.2,9.0,30.03,NNE,27,1.0,4.0,17,0.00,,,0.00,weatherlink.com 1.10,2012-04-08 11:35:00,
2012-04-08 04:50:00,50.2,11.0,30.02,NE,36,0.0,1.0,21,0.00,,,0.00,weatherlink.com 1.10,2012-04-08 11:50:00,
2012-04-08 05:05:00,50.3,8.0,30.02,NNE,33,2.0,2.0,18,0.00,,,0.00,weatherlink.com 1.10,2012-04-08 12:05:00,
2012-04-08 05:20:00,51.6,8.0,30.02,NNE,22,4.0,4.0,17,0.00,,,0.00,weatherlink.com 1.10,2012-04-08 12:20:00,
2012-04-08 05:35:00,51.7,8.0,30.02,NNE,27,1.0,2.0,17,0.00,,,0.00,weatherlink.com 1.10,2012-04-08 12:35:00,
2012-04-08 05:50:00,49.6,10.0,30.02,NNE,27,1.0,2.0,20,0.00,,,0.00,weatherlink.com 1.10,2012-04-08 12:50:00,
2012-04-08 06:05:00,48.7,10.0,30.03,NNE,27,1.0,3.0,21,0.00,,,0.00,weatherlink.com 1.10,2012-04-08 13:05:00,
2012-04-08 06:20:00,48.3,9.0,30.03,NNE,30,2.0,3.0,20,0.00,,,0.00,weatherlink.com 1.10,2012-04-08 13:20:00,
2012-04-08 06:50:00,46.8,6.0,30.04,NE,36,2.0,3.0,19,0.00,,,0.00,weatherlink.com 1.10,2012-04-08 13:50:00,
2012-04-08 07:05:00,49.5,11.0,30.04,NE,44,3.0,3.0,21,0.00,,,0.00,weatherlink.com 1.10,2012-04-08 14:05:00,
2012-04-08 07:20:00,51.7,4.0,30.04,NNE,30,3.0,4.0,14,0.00,,,0.00,weatherlink.com 1.10,2012-04-08 14:20:00,
2012-04-08 07:35:00,54.5,8.0,30.04,NNE,27,2.0,4.0,15,0.00,,,0.00,weatherlink.com 1.10,2012-04-08 14:35:00,
2012-04-08 07:50:00,54.1,16.0,30.04,NNE,30,1.0,2.0,22,0.00,,,0.00,weatherlink.com 1.10,2012-04-08 14:50:00,
2012-04-08 08:05:00,53.4,20.0,30.04,NNE,30,0.0,1.0,27,0.00,,,0.00,weatherlink.com 1.10,2012-04-08 15:05:00,
2012-04-08 08:20:00,54.7,19.0,30.04,ENE,58,0.0,1.0,25,0.00,,,0.00,weatherlink.com 1.10,2012-04-08 15:20:00,
2012-04-08 08:35:00,58.2,15.0,30.04,ENE,71,2.0,2.0,18,0.00,,,0.00,weatherlink.com 1.10,2012-04-08 15:35:00,
2012-04-08 08:50:00,59.9,12.0,30.04,East,86,0.0,4.0,15,0.00,,,0.00,weatherlink.com 1.10,2012-04-08 15:50:00,
2012-04-08 09:20:00,62.0,15.0,30.04,SW,220,0.0,4.0,16,0.00,,,0.00,weatherlink.com 1.10,2012-04-08 16:20:00,
2012-04-08 09:50:00,63.0,13.0,30.05,East,94,1.0,3.0,14,0.00,,,0.00,weatherlink.com 1.10,2012-04-08 16:50:00,
2012-04-08 10:06:00,63.6,13.0,30.06,ESE,103,0.0,4.0,14,0.00,,,0.00,weatherlink.com 1.10,2012-04-08 17:06:00,
2012-04-08 10:21:00,64.3,16.0,30.06,SE,137,2.0,3.0,15,0.00,,,0.00,weatherlink.com 1.10,2012-04-08 17:21:00,
2012-04-08 10:36:00,65.4,16.0,30.06,SE,143,2.0,5.0,15,0.00,,,0.00,weatherlink.com 1.10,2012-04-08 17:36:00,
2012-04-08 11:05:00,66.0,12.0,30.06,SW,224,6.0,6.0,12,0.00,,,0.00,weatherlink.com 1.10,2012-04-08 18:05:00,
2012-04-08 11:36:00,69.1,16.0,30.06,ESE,123,2.0,6.0,13,0.00,,,0.00,weatherlink.com 1.10,2012-04-08 18:36:00,
2012-04-08 11:51:00,69.8,18.0,30.06,WSW,246,0.0,9.0,14,0.00,,,0.00,weatherlink.com 1.10,2012-04-08 18:51:00,
2012-04-08 12:06:00,70.7,19.0,30.05,SSW,207,3.0,8.0,14,0.00,,,0.00,weatherlink.com 1.10,2012-04-08 19:06:00,
2012-04-08 12:38:00,69.6,17.0,30.05,SSW,203,5.0,12.0,13,0.00,,,0.00,weatherlink.com 1.10,2012-04-08 19:38:00,
2012-04-08 13:51:00,72.1,17.0,30.04,SSW,201,5.0,8.0,12,0.00,,,0.00,weatherlink.com 1.10,2012-04-08 20:51:00,
2012-04-08 14:07:00,71.5,18.0,30.03,ESE,121,0.0,10.0,13,0.00,,,0.00,weatherlink.com 1.10,2012-04-08 21:07:00,
2012-04-08 14:21:00,70.1,19.0,30.03,East,82,0.0,4.0,14,0.00,,,0.00,weatherlink.com 1.10,2012-04-08 21:21:00,
2012-04-08 14:36:00,70.8,14.0,30.02,South,191,5.0,11.0,11,0.00,,,0.00,weatherlink.com 1.10,2012-04-08 21:36:00,
2012-04-08 14:51:00,70.8,19.0,30.02,WSW,239,1.0,8.0,14,0.00,,,0.00,weatherlink.com 1.10,2012-04-08 21:51:00,
2012-04-08 15:38:00,70.8,22.0,30.01,SSE,158,4.0,8.0,16,0.00,,,0.00,weatherlink.com 1.10,2012-04-08 22:38:00,
2012-04-08 15:51:00,70.2,25.0,30.00,SSW,195,1.0,10.0,18,0.00,,,0.00,weatherlink.com 1.10,2012-04-08 22:51:00,
2012-04-08 16:06:00,70.5,25.0,30.01,SSW,208,5.0,7.0,18,0.00,,,0.00,weatherlink.com 1.10,2012-04-08 23:06:00,
2012-04-08 16:21:00,69.6,24.0,30.01,SSW,211,5.0,8.0,18,0.00,,,0.00,weatherlink.com 1.10,2012-04-08 23:21:00,
2012-04-08 16:37:00,68.6,26.0,30.01,SE,132,0.0,12.0,20,0.00,,,0.00,weatherlink.com 1.10,2012-04-08 23:37:00,
2012-04-08 16:52:00,68.3,23.0,30.01,SSW,197,5.0,11.0,18,0.00,,,0.00,weatherlink.com 1.10,2012-04-08 23:52:00,
2012-04-08 17:07:00,67.2,21.0,30.01,SW,214,2.0,9.0,17,0.00,,,0.00,weatherlink.com 1.10,2012-04-09 00:07:00,
2012-04-08 17:22:00,65.9,24.0,30.01,SW,217,5.0,8.0,20,0.00,,,0.00,weatherlink.com 1.10,2012-04-09 00:22:00,
2012-04-08 17:52:00,64.4,23.0,30.01,SW,218,0.0,7.0,21,0.00,,,0.00,weatherlink.com 1.10,2012-04-09 00:52:00,
2012-04-08 18:07:00,63.6,22.0,30.01,SSE,160,1.0,7.0,20,0.00,,,0.00,weatherlink.com 1.10,2012-04-09 01:07:00,
2012-04-08 18:22:00,63.5,22.0,30.01,SSW,207,0.0,4.0,20,0.00,,,0.00,weatherlink.com 1.10,2012-04-09 01:22:00,
2012-04-08 18:37:00,61.8,20.0,30.00,SSW,210,0.0,4.0,20,0.00,,,0.00,weatherlink.com 1.10,2012-04-09 01:37:00,
2012-04-08 18:52:00,60.7,20.0,30.00,SW,219,1.0,3.0,21,0.00,,,0.00,weatherlink.com 1.10,2012-04-09 01:52:00,
2012-04-08 19:07:00,58.5,24.0,30.01,SW,224,0.0,1.0,26,0.00,,,0.00,weatherlink.com 1.10,2012-04-09 02:07:00,
2012-04-08 19:22:00,56.1,22.0,30.00,NNE,17,2.0,3.0,27,0.00,,,0.00,weatherlink.com 1.10,2012-04-09 02:22:00,
2012-04-08 19:37:00,54.1,23.0,30.00,NNE,26,2.0,4.0,30,0.00,,,0.00,weatherlink.com 1.10,2012-04-09 02:37:00,
2012-04-08 20:07:00,53.0,23.0,30.00,NNE,26,3.0,3.0,31,0.00,,,0.00,weatherlink.com 1.10,2012-04-09 03:07:00,
2012-04-08 20:22:00,52.8,22.0,30.00,NNW,346,5.0,5.0,30,0.00,,,0.00,weatherlink.com 1.10,2012-04-09 03:22:00,
2012-04-08 20:37:00,52.4,22.0,30.00,North,8,3.0,4.0,30,0.00,,,0.00,weatherlink.com 1.10,2012-04-09 03:37:00,
2012-04-08 20:52:00,52.5,22.0,30.01,NNE,23,1.0,4.0,31,0.00,,,0.00,weatherlink.com 1.10,2012-04-09 03:52:00,
2012-04-08 21:07:00,50.9,22.0,30.01,NNE,15,2.0,3.0,32,0.00,,,0.00,weatherlink.com 1.10,2012-04-09 04:07:00,
2012-04-08 21:22:00,51.2,22.0,30.02,North,8,2.0,4.0,32,0.00,,,0.00,weatherlink.com 1.10,2012-04-09 04:22:00,
2012-04-08 21:37:00,52.1,21.0,30.02,NNE,12,2.0,4.0,29,0.00,,,0.00,weatherlink.com 1.10,2012-04-09 04:37:00,
2012-04-08 21:52:00,52.2,21.0,30.02,North,354,3.0,4.0,29,0.00,,,0.00,weatherlink.com 1.10,2012-04-09 04:52:00,
2012-04-08 22:07:00,52.1,21.0,30.02,NNE,16,3.0,4.0,29,0.00,,,0.00,weatherlink.com 1.10,2012-04-09 05:07:00,
2012-04-08 22:22:00,52.2,21.0,30.01,North,11,3.0,4.0,29,0.00,,,0.00,weatherlink.com 1.10,2012-04-09 05:22:00,
2012-04-08 22:37:00,50.8,21.0,30.02,NNE,18,3.0,4.0,31,0.00,,,0.00,weatherlink.com 1.10,2012-04-09 05:37:00,
2012-04-08 22:52:00,51.0,20.0,30.01,NNE,12,4.0,4.0,30,0.00,,,0.00,weatherlink.com 1.10,2012-04-09 05:52:00,
2012-04-08 23:07:00,51.5,22.0,30.01,NNE,13,3.0,4.0,31,0.00,,,0.00,weatherlink.com 1.10,2012-04-09 06:07:00,
2012-04-08 23:22:00,51.0,21.0,30.01,North,9,3.0,5.0,31,0.00,,,0.00,weatherlink.com 1.10,2012-04-09 06:22:00,
2012-04-08 23:37:00,50.6,21.0,30.01,North,11,4.0,4.0,31,0.00,,,0.00,weatherlink.com 1.10,2012-04-09 06:37:00,